Overview Statistics Trail Chart Weather Telemetry Raw packets
 

This is the latest recevied weather packets stored in our database for station/object K5SVV. If no packets are shown the sender has not sent any weather packets the latest 10 day(s).

<< 98 99 100 101 102 103 104 >>
Time Temp. Humidity Pressure Rain* Wind** Luminosity Snow
1787956737 38.33° C 30% 1013.3 hPa 0 mm - 331 W/m² -
1787956433 38.89° C 31% 1013.3 hPa 0 mm - 326 W/m² -
1787956128 38.33° C 32% 1013.4 hPa 0 mm - 334 W/m² -
1787955823 38.89° C 31% 1013.2 hPa 0 mm - 356 W/m² -
1787955519 38.33° C 31% 1013.3 hPa 0 mm - 373 W/m² -
1787955218 37.78° C 33% 1013.4 hPa 0 mm - 402 W/m² -
1787954913 38.89° C 32% 1013.6 hPa 0 mm - 402 W/m² -
1787954609 38.89° C 32% 1013.7 hPa 0 mm - 434 W/m² -
1787954308 38.33° C 32% 1013.7 hPa 0 mm - 443 W/m² -
1787954004 38.33° C 33% 1013.9 hPa 0 mm - 439 W/m² -
1787953702 38.89° C 33% 1013.5 hPa 0 mm - 138 W/m² -
1787953398 38.33° C 33% 1013.8 hPa 0 mm - 500 W/m² -
1787953090 38.33° C 34% 1013.8 hPa 0 mm - 536 W/m² -
1787952789 38.33° C 34% 1014 hPa 0 mm - 528 W/m² -
1787952484 38.33° C 33% 1014.1 hPa 0 mm - 518 W/m² -
1787952181 37.22° C 34% 1014 hPa 0 mm - 563 W/m² -
1787951879 37.78° C 35% 1014.5 hPa 0 mm - 123 W/m² -
1787951575 38.89° C 34% 1014.6 hPa 0 mm - 558 W/m² -
1787951272 39.44° C 33% 1014.6 hPa 0 mm - 163 W/m² -
1787950967 37.78° C 34% 1014.6 hPa 0 mm - 649 W/m² -
1787950662 37.78° C 36% 1015 hPa 0 mm - 165 W/m² -
1787950358 37.78° C 35% 1014.8 hPa 0 mm - 148 W/m² -
1787950053 38.89° C 34% 1014.9 hPa 0 mm - 139 W/m² -
1787949749 38.89° C 34% 1015.3 hPa 0 mm - 673 W/m² -
1787949443 38.89° C 34% 1015.2 hPa 0 mm - 662 W/m² -

* Rain latest hour (hover to see other rain measurements)
** Current wind speed in m/s (hover to see current wind gust speed)